Location: Gloden
(48.4833°N, 15.3167°E)
Time: 02:52:00
(UTC+00:00)

CUTE-I - Pass Details

Date: 02 December 2022
Orbit: 809 x 824 km, 98.7° (Epoch: 30 January)

Event Time Altitude Azimuth Distance (km) Brightness Sun altitude
Rises 16:21:03 0° 167° (SSE) 3,321 ? -12.0°
Reaches altitude 10° 16:23:23 10° 169° (SSE) 2,396 ? -12.4°
Maximum altitude 16:28:41 79° 256° (WSW) 837 ? -13.2°
Drops below altitude 10° 16:34:04 10° 343° (NNW) 2,423 ? -14.1°
Sets 16:36:26 0° 345° (NNW) 3,362 ? -14.4°
